THOR ABLESTAR DEB, 230

Orbit data source: Space-Track

THOR ABLESTAR DEB, 230 is space debris in LEO originally from a launch on Thu, 29 Jun 1961 UTC launched from the Air Force Eastern Test Range (AFETR). Debris objects in space refer to the collection of defunct objects orbiting the Earth. Examples of debris include non-operational satellites, rocket bodies, and fragments generated from explosions, collisions, or faulty payload assembly.

Loading next visibility...
Identifier
230, 1961-015BN
Orbit
LEO
Country
Flag of USUS
Related business
Manufacturer
Unknown
Mission
Spacecraft
Bus & Motor
Unknown
Mass
Unknown
Launch date (UTC)
1961-06-29 (65 years ago)
Launch vehicle
Unknown
Launch site
Air Force Eastern Test Range (AFETR)
Object type
Payload
Rocket body
Debris
Shape & HBR
Unknown shape, 0.2 m
Radar Cross Section
Small (<0.1 m²)

Expand to show TLE details & history
Last TLE update: 11 hours ago

TLE from 11 hours ago
0 THOR ABLESTAR DEB
1   230U 61015BN  26125.44060722  .00000041  00000-0  81840-4 0  9999
2   230  66.8816 154.1351 0096193 207.6564 151.9384 13.96798058299782
Epoch: 2026-05-05T10:34Z
TLE epoch observation values (Epoch: 2026-05-05T10:34:28.463Z)
Latitude
-0.00007°
Longitude
132.20106°
Altitude
968.968 km
Speed
7.336 km/s
True Right ascension
10h 16m 32s
True Declination
0° 00' 00"
Sunlit
Object was in daylight at epoch
Visualization orbit readout
Latitude
Unknown
Longitude
Unknown
Altitude
Unknown
Speed
Unknown
Apparent Right ascension
Unknown
Apparent Declination
Unknown
Sunlit
N/A
Visualization observer readout
Local Sidereal Time
05:02:10
Azimuth
Unknown
Elevation
Unknown
Doppler factor
Unknown
Orbital elements
Apogee altitude
973.326 km
Perigee altitude
833.241 km
Semi-major axis
7,281.42 km
Eccentricity
0.00962
Inclination
66.8816°
RAAN
154.1351°
Arg. of periapsis
207.6564°
True anomaly
152.45149°
Mean anomaly
151.9384°
Eccentric anomaly
152.19549°
Mean motion
3.49316 °/min
Orbital period
103.06 mins
BSTAR
0.00008184
Loading maneuver chart data...
Computing Atmospheric mass density...
Loading historical data...
Loading historical data...
Loading historical data...
Loading historical data...
Loading historical data...
Loading historical data...
Loading historical data...

Documentation

Showing up to 5 results
|